Regional Weather Roundup
Issued by NWS

Home | Current Version | Previous Version | Graphics & Text | Print | Product List | Glossary On
Versions: 1 2 3 4 5 6 7 8 9 10 11 12 13 14 15 16 17 18 19 20 21 22 23 24 25 26 27 28 29 30 31 32 33 34 35 36 37 38 39 40 41 42 43 44 45 46 47 48 49 50
783
ASUS43 KFSD 201210
RWRSD

WEATHER ROUNDUP FOR SOUTH DAKOTA
NATIONAL WEATHER SERVICE SIOUX FALLS SD
600 AM CST FRI JAN 20 2017

NOTE: "FAIR" INDICATES FEW OR NO CLOUDS BELOW 12,000 FEET WITH NO
SIGNIFICANT WEATHER AND/OR OBSTRUCTIONS TO VISIBILITY.


SDZ001>005-009-010-012>017-201300-
NORTHWEST AND NORTH CENTRAL SOUTH DAKOTA

CITY           SKY/WX    TMP DP  RH WIND       PRES   REMARKS
BUFFALO          N/A     29  23  78 NW22      29.31F WCI  15
FAITH            N/A     20  17  88 NW12      29.36F WCI   8
MOBRIDGE       FOG       25  21  85 N7        29.36F VSB 1/2 WCI  17
$$

SDZ012>016-024>037-041>051-057-063-072>074-201300-
SOUTHWEST AND SOUTH CENTRAL SOUTH DAKOTA

CITY           SKY/WX    TMP DP  RH WIND       PRES   REMARKS
RAPID CTY ARPT CLOUDY    27  19  72 NW7       29.37S WCI  19
PIERRE         FOG       18  17  96 W6        29.38F VSB 1/4 WCI  10
CUSTER         CLOUDY    25  16  68 N3        29.37S
ELLSWORTH AFB  CLOUDY    34  23  64 N12       29.36F WCI  25
PHILIP         CLOUDY    16  13  88 W6        29.38F WCI   7
PINE RIDGE     CLOUDY    27  22  81 W5        29.40S WCI  22
SPEARFISH      FAIR      30  21  69 W9        29.42S WCI  22
WINNER         FAIR      27  25  92 SW6       29.37F WCI  20
$$

SDZ004>011-016>023-039-040-201300-
NORTHEAST SOUTH DAKOTA

CITY           SKY/WX    TMP DP  RH WIND       PRES   REMARKS
ABERDEEN       CLOUDY    34  31  88 SE6       29.44F FOG     WCI  29
WATERTOWN      CLOUDY    35  35 100 SE10      29.46F WCI  27
BROOKINGS      CLOUDY    35  34  96 SE10      29.49S FOG     WCI  27
SISSETON         N/A     34  34 100 S10       29.50F WCI  26
$$

SDZ017-020-022-023-036>040-048>070-201300-
SOUTHEAST SOUTH DAKOTA

CITY           SKY/WX    TMP DP  RH WIND       PRES   REMARKS
SIOUX FALLS    CLOUDY    37  37 100 SE9       29.51S FOG
HURON          CLOUDY    36  36 100 SE8       29.43S
CHAMBERLAIN    CLEAR     32  32 100 SE3       29.39F
MITCHELL       CLOUDY    38  37  97 SE10      29.44F
YANKTON        MOCLDY    37  34  87 SE10      29.47F
$$

ABBREVIATIONS USED IN REMARKS
   TC - TEMPERATURE IN CELSIUS
  WCI - WIND CHILL INDEX
   HX - HEAT INDEX
  VSB - VISIBILITY





USA.gov is the U.S. government's official web portal to all federal, state and local government web resources and services.